| time (UTC) | temp C | wind direction | speed KPH | gust KPH | rain 1hr cm | rain 24hr cm | rain mn cm | humidity % | barometer mb |
| 20260502220520 | 22 | 63 | 1.6 | 1.6 | 0.00 | 0.00 | 0.00 | 44 | 1021.5 |
| 20260502220017 | 23 | 349 | 6.4 | 6.4 | 0.00 | 0.00 | 0.00 | 42 | 1021.3 |
| 20260502215515 | 22 | 49 | 4.8 | 6.4 | 0.00 | 0.00 | 0.00 | 43 | 1021.5 |
| 20260502215011 | 23 | 337 | 3.2 | 4.8 | 0.00 | 0.00 | 0.00 | 44 | 1021.7 |
| 20260502214508 | 22 | 343 | 8.0 | 9.7 | 0.00 | 0.00 | 0.00 | 43 | 1021.6 |
| 20260502214006 | 22 | 0 | 4.8 | 6.4 | 0.00 | 0.00 | 0.00 | 43 | 1021.6 |
| 20260502213502 | 22 | 341 | 8.0 | 11.3 | 0.00 | 0.00 | 0.00 | 43 | 1021.7 |
| 20260502213000 | 22 | 14 | 8.0 | 14.5 | 0.00 | 0.00 | 0.00 | 42 | 1021.9 |
| 20260502212459 | 22 | 359 | 9.7 | 12.9 | 0.00 | 0.00 | 0.00 | 42 | 1021.8 |
| 20260502211955 | 22 | 4 | 11.3 | 14.5 | 0.00 | 0.00 | 0.00 | 43 | 1021.9 |
| 20260502211451 | 22 | 41 | 6.4 | 11.3 | 0.00 | 0.00 | 0.00 | 41 | 1021.8 |
| 20260502210949 | 22 | 24 | 4.8 | 6.4 | 0.00 | 0.00 | 0.00 | 42 | 1022.0 |
| 20260502210445 | 22 | 335 | 11.3 | 14.5 | 0.00 | 0.00 | 0.00 | 42 | 1022.2 |
| 20260502205943 | 22 | 340 | 11.3 | 12.9 | 0.00 | 0.00 | 0.00 | 42 | 1022.1 |
| 20260502205439 | 22 | 6 | 14.5 | 16.1 | 0.00 | 0.00 | 0.00 | 41 | 1022.4 |
| 20260502204936 | 22 | 357 | 6.4 | 11.3 | 0.00 | 0.00 | 0.00 | 42 | 1022.5 |
| 20260502204433 | 22 | 11 | 9.7 | 14.5 | 0.00 | 0.00 | 0.00 | 42 | 1022.5 |
| 20260502203931 | 22 | 1 | 8.0 | 11.3 | 0.00 | 0.00 | 0.00 | 43 | 1022.4 |
| 20260502203428 | 22 | 24 | 3.2 | 6.4 | 0.00 | 0.00 | 0.00 | 46 | 1022.5 |
| 20260502202924 | 22 | 10 | 6.4 | 9.7 | 0.00 | 0.00 | 0.00 | 43 | 1022.6 |
| 20260502202421 | 22 | 359 | 3.2 | 4.8 | 0.00 | 0.00 | 0.00 | 45 | 1022.6 |
| 20260502201919 | 22 | 65 | 8.0 | 11.3 | 0.00 | 0.00 | 0.00 | 43 | 1022.8 |
| 20260502201415 | 22 | 22 | 6.4 | 6.4 | 0.00 | 0.00 | 0.00 | 42 | 1022.8 |
| 20260502200912 | 22 | 9 | 3.2 | 6.4 | 0.00 | 0.00 | 0.00 | 44 | 1022.9 |
| 20260502200407 | 22 | 319 | 14.5 | 17.7 | 0.00 | 0.00 | 0.00 | 42 | 1022.8 |
| 20260502195906 | 22 | 26 | 14.5 | 17.7 | 0.00 | 0.00 | 0.00 | 42 | 1022.8 |
| 20260502195402 | 22 | 273 | 8.0 | 16.1 | 0.00 | 0.00 | 0.00 | 42 | 1022.5 |
| 20260502194859 | 22 | 346 | 3.2 | 3.2 | 0.00 | 0.00 | 0.00 | 43 | 1022.6 |
| 20260502194355 | 22 | 353 | 3.2 | 4.8 | 0.00 | 0.00 | 0.00 | 44 | 1022.8 |
| 20260502193851 | 22 | 11 | 3.2 | 6.4 | 0.00 | 0.00 | 0.00 | 44 | 1022.6 |
| 20260502193349 | 21 | 325 | 3.2 | 4.8 | 0.00 | 0.00 | 0.00 | 44 | 1022.6 |
| 20260502192844 | 21 | 28 | 8.0 | 11.3 | 0.00 | 0.00 | 0.00 | 43 | 1023.1 |
| 20260502192341 | 22 | 47 | 3.2 | 4.8 | 0.00 | 0.00 | 0.00 | 45 | 1022.9 |
| 20260502191838 | 21 | 36 | 6.4 | 9.7 | 0.00 | 0.00 | 0.00 | 46 | 1023.0 |
| 20260502191337 | 21 | 11 | 6.4 | 11.3 | 0.00 | 0.00 | 0.00 | 48 | 1022.8 |
| 20260502190833 | 21 | 296 | 3.2 | 3.2 | 0.00 | 0.00 | 0.00 | 48 | 1023.0 |
| 20260502190331 | 21 | 339 | 9.7 | 16.1 | 0.00 | 0.00 | 0.00 | 48 | 1023.0 |
| 20260502185826 | 21 | 24 | 6.4 | 6.4 | 0.00 | 0.00 | 0.00 | 48 | 1023.2 |
| 20260502185322 | 21 | 82 | 4.8 | 6.4 | 0.00 | 0.00 | 0.00 | 49 | 1023.0 |
| 20260502184820 | 21 | 27 | 6.4 | 6.4 | 0.00 | 0.00 | 0.00 | 50 | 1023.0 |
| 20260502184315 | 21 | 340 | 9.7 | 11.3 | 0.00 | 0.00 | 0.00 | 47 | 1023.3 |
| 20260502183812 | 20 | 12 | 4.8 | 4.8 | 0.00 | 0.00 | 0.00 | 49 | 1023.1 |
| 20260502183308 | 21 | 310 | 6.4 | 6.4 | 0.00 | 0.00 | 0.00 | 53 | 1023.3 |
| 20260502182803 | 21 | 27 | 8.0 | 11.3 | 0.00 | 0.00 | 0.00 | 53 | 1023.4 |
| 20260502182259 | 20 | 42 | 11.3 | 14.5 | 0.00 | 0.00 | 0.00 | 54 | 1023.6 |
| 20260502181755 | 20 | 347 | 12.9 | 16.1 | 0.00 | 0.00 | 0.00 | 53 | 1023.6 |
| 20260502181255 | 20 | 309 | 4.8 | 6.4 | 0.00 | 0.00 | 0.00 | 53 | 1023.6 |
| 20260502180752 | 21 | 345 | 12.9 | 14.5 | 0.00 | 0.00 | 0.00 | 54 | 1023.9 |
| 20260502180249 | 20 | 19 | 6.4 | 6.4 | 0.00 | 0.00 | 0.00 | 53 | 1023.9 |
| 20260502170214 | 19 | 12 | 1.6 | 3.2 | 0.00 | 0.00 | 0.00 | 60 | 1024.3 |
| 20260502164201 | 18 | 313 | 12.9 | 14.5 | 0.00 | 0.00 | 0.00 | 59 | 1024.6 |
| 20260502163655 | 18 | 343 | 8.0 | 12.9 | 0.00 | 0.00 | 0.00 | 60 | 1024.7 |
| 20260502163153 | 18 | 314 | 6.4 | 9.7 | 0.00 | 0.00 | 0.00 | 59 | 1024.8 |
| 20260502162650 | 18 | 11 | 8.0 | 11.3 | 0.00 | 0.00 | 0.00 | 58 | 1024.7 |
| 20260502162147 | 18 | 4 | 9.7 | 14.5 | 0.00 | 0.00 | 0.00 | 57 | 1024.7 |
| 20260502161644 | 18 | 2 | 4.8 | 6.4 | 0.00 | 0.00 | 0.00 | 59 | 1024.6 |
| 20260502161140 | 18 | 357 | 8.0 | 11.3 | 0.00 | 0.00 | 0.00 | 58 | 1024.6 |
| 20260502160638 | 18 | 352 | 3.2 | 9.7 | 0.00 | 0.00 | 0.00 | 59 | 1024.6 |
| 20260502160137 | 18 | 5 | 4.8 | 6.4 | 0.00 | 0.00 | 0.00 | 58 | 1024.6 |
| 20260502152051 | 17 | 30 | 3.2 | 3.2 | 0.00 | 0.00 | 0.00 | 64 | 1024.8 |
| 20260502151548 | 16 | 346 | 6.4 | 9.7 | 0.00 | 0.00 | 0.00 | 63 | 1024.6 |
| 20260502151046 | 16 | 346 | 9.7 | 11.3 | 0.00 | 0.00 | 0.00 | 63 | 1024.5 |
| 20260502150543 | 16 | 337 | 6.4 | 9.7 | 0.00 | 0.00 | 0.00 | 66 | 1024.5 |
| 20260502130422 | 11 | 318 | 6.4 | 9.7 | 0.00 | 0.00 | 0.00 | 89 | 1023.5 |
| 20260502123404 | 10 | 331 | 3.2 | 3.2 | 0.00 | 0.00 | 0.00 | 94 | 1022.9 |
| 20260502122901 | 10 | 298 | 6.4 | 6.4 | 0.00 | 0.00 | 0.00 | 94 | 1022.8 |
| 20260502122357 | 10 | 319 | 3.2 | 3.2 | 0.00 | 0.00 | 0.00 | 95 | 1022.8 |
| 20260502121856 | 10 | 292 | 1.6 | 3.2 | 0.00 | 0.00 | 0.00 | 95 | 1022.8 |
| 20260502121353 | 10 | 292 | 4.8 | 4.8 | 0.00 | 0.00 | 0.00 | 95 | 1022.5 |
| 20260502120851 | 10 | 281 | 4.8 | 4.8 | 0.00 | 0.00 | 0.00 | 95 | 1022.4 |
| 20260502120346 | 9 | 298 | 3.2 | 4.8 | 0.00 | 0.00 | 0.00 | 96 | 1022.3 |
| 20260502115844 | 9 | 278 | 3.2 | 3.2 | 0.00 | 0.00 | 0.00 | 96 | 1022.2 |
| 20260502115341 | 10 | 288 | 3.2 | 3.2 | 0.00 | 0.00 | 0.00 | 96 | 1022.2 |
| 20260502114837 | 10 | 311 | 3.2 | 4.8 | 0.00 | 0.00 | 0.00 | 95 | 1022.0 |
| 20260502114334 | 10 | 288 | 3.2 | 4.8 | 0.00 | 0.00 | 0.00 | 95 | 1022.3 |
| 20260502113831 | 10 | 290 | 3.2 | 3.2 | 0.00 | 0.00 | 0.00 | 95 | 1022.0 |
| 20260502113328 | 10 | 285 | 3.2 | 3.2 | 0.00 | 0.00 | 0.00 | 95 | 1022.1 |
| 20260502112827 | 10 | 285 | 1.6 | 1.6 | 0.00 | 0.00 | 0.00 | 95 | 1022.1 |
| 20260502112324 | 10 | 291 | 0.0 | 0.0 | 0.00 | 0.00 | 0.00 | 93 | 1021.8 |
| 20260502111821 | 10 | 272 | 0.0 | 0.0 | 0.00 | 0.00 | 0.00 | 93 | 1022.0 |
| 20260502111319 | 10 | 280 | 0.0 | 0.0 | 0.00 | 0.00 | 0.00 | 93 | 1021.9 |
| 20260502110816 | 10 | 262 | 1.6 | 1.6 | 0.00 | 0.00 | 0.00 | 93 | 1021.9 |
| 20260502110314 | 10 | 283 | 3.2 | 3.2 | 0.00 | 0.00 | 0.00 | 93 | 1021.7 |
| 20260502105811 | 10 | 233 | 0.0 | 0.0 | 0.00 | 0.00 | 0.00 | 93 | 1021.5 |
| 20260502105308 | 10 | 224 | 3.2 | 3.2 | 0.00 | 0.00 | 0.00 | 94 | 1021.4 |
| 20260502104806 | 10 | 243 | 0.0 | 0.0 | 0.00 | 0.00 | 0.00 | 94 | 1021.5 |
| 20260502104302 | 10 | 232 | 3.2 | 3.2 | 0.00 | 0.00 | 0.00 | 93 | 1021.3 |
| 20260502103800 | 10 | 280 | 1.6 | 1.6 | 0.00 | 0.00 | 0.00 | 93 | 1021.2 |
| 20260502103257 | 10 | 298 | 1.6 | 3.2 | 0.00 | 0.00 | 0.00 | 92 | 1021.0 |
| 20260502102755 | 10 | 318 | 3.2 | 3.2 | 0.00 | 0.00 | 0.00 | 92 | 1021.0 |
| 20260502102250 | 10 | 338 | 3.2 | 4.8 | 0.00 | 0.00 | 0.00 | 92 | 1020.6 |
| 20260502101749 | 10 | 331 | 3.2 | 4.8 | 0.00 | 0.00 | 0.00 | 92 | 1020.7 |
| 20260502101247 | 10 | 343 | 6.4 | 11.3 | 0.00 | 0.00 | 0.00 | 92 | 1020.7 |
| 20260502100744 | 10 | 329 | 3.2 | 4.8 | 0.00 | 0.00 | 0.00 | 91 | 1020.6 |
| 20260502100243 | 10 | 335 | 3.2 | 3.2 | 0.00 | 0.00 | 0.00 | 90 | 1020.7 |
| 20260502091217 | 11 | 8 | 3.2 | 3.2 | 0.00 | 0.00 | 0.00 | 92 | 1020.1 |
| 20260502090714 | 11 | 356 | 4.8 | 6.4 | 0.00 | 0.00 | 0.00 | 92 | 1020.1 |
| 20260502090211 | 11 | 347 | 9.7 | 12.9 | 0.00 | 0.00 | 0.00 | 92 | 1020.2 |
| 20260502071107 | 11 | 339 | 3.2 | 6.4 | 0.00 | 0.00 | 0.00 | 94 | 1020.0 |
| 20260502070605 | 11 | 318 | 1.6 | 1.6 | 0.00 | 0.00 | 0.00 | 94 | 1020.2 |
| 20260502065601 | 11 | 332 | 6.4 | 6.4 | 0.00 | 0.00 | 0.00 | 94 | 1020.0 |
| 20260502065058 | 11 | 341 | 0.0 | 1.6 | 0.00 | 0.00 | 0.00 | 94 | 1020.0 |
| 20260502064556 | 11 | 336 | 3.2 | 4.8 | 0.00 | 0.00 | 0.00 | 94 | 1020.1 |
| 20260502064053 | 11 | 334 | 3.2 | 3.2 | 0.00 | 0.00 | 0.00 | 94 | 1020.1 |
| 20260502063551 | 11 | 317 | 1.6 | 3.2 | 0.00 | 0.00 | 0.00 | 94 | 1020.0 |
| 20260502063049 | 11 | 359 | 3.2 | 4.8 | 0.00 | 0.00 | 0.00 | 94 | 1020.0 |
| 20260502062545 | 11 | 349 | 1.6 | 1.6 | 0.00 | 0.00 | 0.00 | 94 | 1019.9 |
| 20260502062044 | 11 | 347 | 3.2 | 3.2 | 0.00 | 0.00 | 0.00 | 93 | 1020.1 |
| 20260502061541 | 11 | 324 | 6.4 | 11.3 | 0.00 | 0.00 | 0.00 | 93 | 1020.2 |
| 20260502061038 | 11 | 356 | 1.6 | 3.2 | 0.00 | 0.00 | 0.00 | 93 | 1020.1 |
| 20260502060534 | 11 | 345 | 4.8 | 6.4 | 0.00 | 0.00 | 0.00 | 93 | 1020.2 |
| 20260502060031 | 11 | 316 | 1.6 | 3.2 | 0.00 | 0.00 | 0.00 | 93 | 1020.2 |
| 20260502055528 | 11 | 345 | 6.4 | 9.7 | 0.00 | 0.00 | 0.00 | 93 | 1020.2 |
| 20260502055027 | 11 | 341 | 4.8 | 6.4 | 0.00 | 0.00 | 0.00 | 93 | 1020.1 |
| 20260502054525 | 11 | 318 | 3.2 | 3.2 | 0.00 | 0.00 | 0.00 | 94 | 1020.2 |
| 20260502054022 | 11 | 347 | 6.4 | 9.7 | 0.00 | 0.00 | 0.00 | 95 | 1020.2 |
| 20260502053519 | 11 | 316 | 3.2 | 4.8 | 0.00 | 0.00 | 0.00 | 94 | 1020.1 |
| 20260502053017 | 11 | 338 | 0.0 | 1.6 | 0.00 | 0.00 | 0.00 | 93 | 1020.0 |
| 20260502052515 | 11 | 326 | 3.2 | 4.8 | 0.00 | 0.00 | 0.00 | 93 | 1020.2 |
| 20260502052013 | 11 | 319 | 1.6 | 3.2 | 0.00 | 0.00 | 0.00 | 93 | 1020.0 |
| 20260502051511 | 11 | 340 | 3.2 | 3.2 | 0.00 | 0.00 | 0.00 | 92 | 1019.9 |
| 20260502051008 | 12 | 356 | 3.2 | 4.8 | 0.00 | 0.00 | 0.00 | 92 | 1019.8 |
| 20260502050504 | 12 | 15 | 3.2 | 4.8 | 0.00 | 0.00 | 0.00 | 92 | 1020.0 |
| 20260502050001 | 12 | 340 | 3.2 | 6.4 | 0.00 | 2.84 | 2.84 | 92 | 1020.1 |
| 20260502045458 | 12 | 341 | 6.4 | 9.7 | 0.00 | 2.84 | 2.84 | 91 | 1020.0 |
| 20260502044955 | 12 | 331 | 8.0 | 11.3 | 0.00 | 2.84 | 2.84 | 91 | 1019.9 |
| 20260502044450 | 12 | 6 | 3.2 | 6.4 | 0.00 | 2.84 | 2.84 | 91 | 1019.8 |
| 20260502043948 | 12 | 338 | 6.4 | 6.4 | 0.00 | 2.84 | 2.84 | 91 | 1019.9 |
| 20260502043445 | 12 | 4 | 8.0 | 11.3 | 0.00 | 2.84 | 2.84 | 91 | 1019.7 |
| 20260502042944 | 12 | 16 | 3.2 | 4.8 | 0.00 | 2.84 | 2.84 | 90 | 1019.8 |
| 20260502042442 | 12 | 9 | 4.8 | 4.8 | 0.00 | 2.84 | 2.84 | 90 | 1019.9 |
| 20260502041939 | 12 | 0 | 1.6 | 1.6 | 0.00 | 2.84 | 2.84 | 90 | 1019.9 |
| 20260502041437 | 12 | 346 | 8.0 | 14.5 | 0.00 | 2.84 | 2.84 | 90 | 1019.9 |
| 20260502040934 | 12 | 345 | 3.2 | 6.4 | 0.00 | 2.84 | 2.84 | 89 | 1019.8 |
| 20260502040430 | 12 | 351 | 4.8 | 6.4 | 0.00 | 2.84 | 2.84 | 90 | 1019.9 |
| 20260502035927 | 12 | 355 | 8.0 | 12.9 | 0.00 | 2.84 | 2.84 | 90 | 1019.9 |
| 20260502035423 | 12 | 339 | 3.2 | 6.4 | 0.00 | 2.84 | 2.84 | 89 | 1020.1 |
| 20260502034921 | 12 | 16 | 3.2 | 4.8 | 0.00 | 2.84 | 2.84 | 90 | 1020.2 |
| 20260502034420 | 12 | 329 | 9.7 | 12.9 | 0.00 | 2.84 | 2.84 | 90 | 1019.7 |
| 20260502033917 | 12 | 339 | 9.7 | 12.9 | 0.00 | 2.84 | 2.84 | 90 | 1019.8 |
| 20260502033415 | 12 | 355 | 1.6 | 3.2 | 0.00 | 2.84 | 2.84 | 90 | 1019.9 |
| 20260502032911 | 12 | 308 | 4.8 | 9.7 | 0.00 | 2.84 | 2.84 | 90 | 1019.6 |
| 20260502032408 | 12 | 337 | 11.3 | 17.7 | 0.00 | 2.84 | 2.84 | 90 | 1019.7 |
| 20260502031905 | 12 | 340 | 8.0 | 12.9 | 0.00 | 2.84 | 2.84 | 90 | 1019.7 |
| 20260502031403 | 12 | 342 | 3.2 | 4.8 | 0.00 | 2.84 | 2.84 | 90 | 1019.7 |
| 20260502030901 | 12 | 355 | 9.7 | 12.9 | 0.00 | 2.84 | 2.84 | 90 | 1019.7 |
| 20260502030359 | 12 | 324 | 8.0 | 9.7 | 0.00 | 2.84 | 2.84 | 90 | 1019.5 |
| 20260502025856 | 12 | 343 | 4.8 | 9.7 | 0.00 | 2.84 | 2.84 | 90 | 1019.4 |
| 20260502025353 | 12 | 341 | 6.4 | 6.4 | 0.00 | 2.84 | 2.84 | 90 | 1019.4 |
| 20260502024851 | 12 | 24 | 9.7 | 11.3 | 0.00 | 2.84 | 2.84 | 90 | 1019.4 |
| 20260502024349 | 12 | 305 | 4.8 | 6.4 | 0.00 | 2.84 | 2.84 | 90 | 1019.4 |
| 20260502023847 | 12 | 14 | 11.3 | 17.7 | 0.00 | 2.84 | 2.84 | 89 | 1019.2 |
| 20260502023344 | 12 | 25 | 14.5 | 17.7 | 0.00 | 2.84 | 2.84 | 89 | 1019.1 |
| 20260502022842 | 12 | 42 | 9.7 | 14.5 | 0.00 | 2.84 | 2.84 | 90 | 1019.1 |
| 20260502022338 | 12 | 26 | 6.4 | 9.7 | 0.00 | 2.84 | 2.84 | 91 | 1018.9 |
| 20260502021835 | 12 | 345 | 4.8 | 11.3 | 0.00 | 2.84 | 2.84 | 92 | 1018.7 |
| 20260502021332 | 12 | 14 | 6.4 | 9.7 | 0.00 | 2.84 | 2.84 | 93 | 1018.6 |
| 20260502020830 | 12 | 16 | 4.8 | 9.7 | 0.00 | 2.84 | 2.84 | 93 | 1018.5 |
| 20260502020327 | 12 | 24 | 12.9 | 16.1 | 0.00 | 2.84 | 2.84 | 93 | 1018.6 |
| 20260502015824 | 12 | 21 | 6.4 | 11.3 | 0.00 | 2.84 | 2.84 | 93 | 1018.5 |
| 20260502015320 | 12 | 4 | 6.4 | 11.3 | 0.00 | 2.84 | 2.84 | 93 | 1018.4 |
| 20260502014817 | 12 | 44 | 9.7 | 14.5 | 0.00 | 2.84 | 2.84 | 93 | 1018.4 |
| 20260502014314 | 12 | 35 | 16.1 | 20.9 | 0.00 | 2.84 | 2.84 | 91 | 1018.2 |
| 20260502013810 | 12 | 35 | 6.4 | 9.7 | 0.00 | 2.84 | 2.84 | 92 | 1018.1 |
| 20260502013306 | 12 | 19 | 11.3 | 12.9 | 0.00 | 2.84 | 2.84 | 91 | 1018.2 |
| 20260502012804 | 12 | 9 | 4.8 | 4.8 | 0.00 | 2.84 | 2.84 | 91 | 1017.9 |
| 20260502012301 | 12 | 355 | 19.3 | 24.1 | 0.00 | 2.84 | 2.84 | 91 | 1018.2 |
| 20260502011758 | 12 | 339 | 9.7 | 12.9 | 0.00 | 2.84 | 2.84 | 91 | 1017.8 |
| 20260502011254 | 12 | 9 | 12.9 | 16.1 | 0.00 | 2.84 | 2.84 | 91 | 1017.6 |
| 20260502010752 | 12 | 55 | 14.5 | 22.5 | 0.00 | 2.84 | 2.84 | 91 | 1017.8 |
| 20260502010248 | 12 | 10 | 16.1 | 24.1 | 0.00 | 2.84 | 2.84 | 91 | 1017.6 |
| 20260502005745 | 12 | 43 | 11.3 | 14.5 | 0.00 | 2.84 | 2.84 | 91 | 1017.5 |
| 20260502005243 | 12 | 332 | 14.5 | 20.9 | 0.00 | 2.84 | 2.84 | 91 | 1017.4 |
| 20260502004739 | 12 | 344 | 11.3 | 12.9 | 0.00 | 2.84 | 2.84 | 91 | 1017.2 |
| 20260502004236 | 12 | 4 | 9.7 | 12.9 | 0.00 | 2.84 | 2.84 | 92 | 1017.4 |
| 20260502003734 | 12 | 359 | 12.9 | 16.1 | 0.00 | 2.84 | 2.84 | 94 | 1017.2 |
| 20260502003231 | 12 | 351 | 14.5 | 16.1 | 0.00 | 2.84 | 2.84 | 99 | 1017.1 |
| 20260502002726 | 11 | 357 | 14.5 | 22.5 | 0.00 | 2.84 | 2.84 | 99 | 1017.0 |
| 20260502002225 | 11 | 342 | 11.3 | 20.9 | 0.00 | 2.84 | 2.84 | 99 | 1016.8 |
| 20260502001721 | 11 | 38 | 8.0 | 12.9 | 0.00 | 2.84 | 2.84 | 99 | 1016.7 |
| 20260502001220 | 11 | 26 | 9.7 | 14.5 | 0.00 | 2.84 | 2.84 | 99 | 1016.8 |
| 20260502000717 | 11 | 357 | 9.7 | 12.9 | 0.00 | 2.84 | 2.84 | 99 | 1016.7 |
| 20260502000215 | 11 | 346 | 4.8 | 6.4 | 0.00 | 2.84 | 2.84 | 99 | 1016.6 |
| 20260501235710 | 11 | 331 | 20.9 | 29.0 | 0.00 | 2.84 | 2.84 | 99 | 1016.6 |
| 20260501235206 | 11 | 9 | 11.3 | 16.1 | 0.00 | 2.84 | 2.84 | 99 | 1017.0 |
| 20260501234702 | 11 | 341 | 17.7 | 24.1 | 0.00 | 2.84 | 2.84 | 99 | 1017.1 |
| 20260501234159 | 11 | 328 | 14.5 | 22.5 | 0.00 | 2.84 | 2.84 | 99 | 1017.0 |
| 20260501233657 | 11 | 26 | 11.3 | 16.1 | 0.00 | 2.84 | 2.84 | 99 | 1017.0 |
| 20260501233154 | 11 | 12 | 9.7 | 12.9 | 0.00 | 2.84 | 2.84 | 99 | 1016.7 |
| 20260501232650 | 12 | 343 | 16.1 | 25.7 | 0.00 | 2.84 | 2.84 | 99 | 1016.4 |
| 20260501232148 | 12 | 345 | 19.3 | 24.1 | 0.00 | 2.84 | 2.84 | 99 | 1016.2 |
| 20260501231645 | 12 | 4 | 11.3 | 17.7 | 0.00 | 2.84 | 2.84 | 99 | 1016.2 |
| 20260501231143 | 11 | 337 | 6.4 | 6.4 | 0.00 | 2.84 | 2.84 | 99 | 1016.5 |
| 20260501230641 | 11 | 11 | 14.5 | 16.1 | 0.00 | 2.84 | 2.84 | 99 | 1016.5 |
| 20260501230139 | 11 | 329 | 16.1 | 24.1 | 0.00 | 2.84 | 2.84 | 99 | 1016.3 |
| 20260501225637 | 11 | 37 | 4.8 | 6.4 | 0.00 | 2.84 | 2.84 | 99 | 1016.1 |
| 20260501225133 | 11 | 345 | 12.9 | 17.7 | 0.00 | 2.84 | 2.84 | 99 | 1016.1 |
| 20260501224630 | 12 | 350 | 9.7 | 11.3 | 0.00 | 2.84 | 2.84 | 99 | 1016.1 |
| 20260501224127 | 12 | 348 | 9.7 | 14.5 | 0.00 | 2.84 | 2.84 | 99 | 1015.9 |
| 20260501223623 | 12 | 46 | 20.9 | 27.4 | 0.00 | 2.84 | 2.84 | 99 | 1015.7 |
| 20260501223120 | 12 | 353 | 8.0 | 9.7 | 0.18 | 2.84 | 2.84 | 99 | 1015.8 |
| 20260501222616 | 12 | 32 | 12.9 | 16.1 | 0.18 | 2.84 | 2.84 | 99 | 1016.3 |
| 20260501222113 | 12 | 295 | 6.4 | 9.7 | 0.13 | 2.82 | 2.82 | 99 | 1016.0 |
| 20260501221610 | 12 | 350 | 11.3 | 16.1 | 0.13 | 2.82 | 2.82 | 99 | 1016.1 |
| 20260501221108 | 12 | 0 | 6.4 | 9.7 | 0.18 | 2.79 | 2.79 | 99 | 1015.8 |